EW9240 Weather Reports


Display with metric or nautical units.
time (UTC)temp
F
wind
direction
speed
MPH
gust
MPH
rain 1hr
in
rain 24hr
in
rain mn
in
humidity
%
barometer
mb
20260904013041 58 134 0.0 2.0 0.00 0.06 0.06 85 1008.0
20260904011528 58 131 0.0 3.0 0.00 0.06 0.06 86 1008.0
20260904010023 58 110 0.0 2.0 0.00 0.06 0.06 85 1008.0
20260904004546 58 110 0.0 2.0 0.00 0.08 0.06 84 1008.0
20260904003028 58 117 0.0 3.0 0.00 0.08 0.06 86 1008.2
20260904001518 58 129 0.0 1.0 0.00 0.08 0.06 86 1008.1
20260904000058 58 215 0.0 0.0 0.00 0.08 0.06 86 1008.1
20260903234542 58 215 0.0 0.0 0.00 0.16 0.06 86 1007.9
20260903233020 58 217 0.0 2.0 0.00 0.16 0.06 84 1008.1
20260903230044 63 238 0.0 3.0 0.00 0.16 0.06 71 1007.9
20260903224527 64 205 0.0 0.0 0.00 0.16 0.06 68 1007.9
20260903223015 63 210 0.0 3.0 0.00 0.16 0.06 68 1007.9
20260903221600 63 127 0.0 4.0 0.00 0.16 0.06 69 1008.0
20260903220039 62 122 0.0 5.0 0.00 0.16 0.06 71 1008.1
20260903214521 62 136 0.0 5.0 0.00 0.18 0.06 73 1008.1
20260903213105 61 158 1.0 6.0 0.00 0.18 0.06 72 1008.2
20260903211551 62 204 0.0 4.0 0.00 0.18 0.06 75 1008.2
20260903210026 62 177 2.0 10.0 0.00 0.18 0.06 74 1008.2
20260903204502 62 214 1.0 6.0 0.00 0.34 0.06 75 1008.1
20260903203052 61 227 0.0 6.0 0.00 0.34 0.06 78 1008.2
20260903201526 60 153 1.0 9.0 0.01 0.34 0.06 80 1008.2
20260903200013 61 214 0.0 5.0 0.01 0.34 0.06 77 1008.3
20260903194553 60 155 0.0 5.0 0.01 0.44 0.06 78 1008.3
20260903193026 60 217 2.0 8.0 0.01 0.44 0.06 77 1008.5
20260903191513 60 200 3.0 8.0 0.00 0.43 0.05 79 1008.4
20260903190104 60 212 0.0 4.0 0.00 0.43 0.05 83 1008.4
20260903184550 60 207 1.0 8.0 0.00 0.48 0.05 80 1008.5
20260903183026 61 146 0.0 3.0 0.00 0.48 0.05 78 1008.3
20260903181511 61 119 0.0 3.0 0.00 0.48 0.05 78 1008.2
20260903180100 61 127 1.0 4.0 0.00 0.48 0.05 80 1008.3
20260903174538 59 77 0.0 3.0 0.00 0.48 0.05 87 1008.2
20260903173021 58 56 0.0 3.0 0.00 0.48 0.05 88 1008.3
20260903171602 57 37 0.0 0.0 0.00 0.48 0.05 90 1008.4
20260903170039 56 293 0.0 1.0 0.00 0.48 0.05 90 1008.6
20260903164526 55 55 0.0 2.0 0.00 0.48 0.05 91 1008.6
20260903163010 55 93 0.0 1.0 0.00 0.48 0.05 91 1008.5
20260903161604 55 111 0.0 0.0 0.01 0.48 0.05 92 1008.7
20260903160101 54 110 0.0 0.0 0.02 0.48 0.05 92 1008.6
20260903154521 54 124 0.0 1.0 0.04 0.48 0.05 91 1008.6
20260903153005 54 150 0.0 2.0 0.04 0.48 0.05 92 1008.6
20260903151552 54 121 0.0 1.0 0.03 0.47 0.04 91 1008.6
20260903150034 54 115 0.0 1.0 0.02 0.46 0.03 91 1008.5
20260903144514 54 128 0.0 1.0 0.00 0.44 0.01 90 1008.4
20260903143055 54 120 0.0 1.0 0.00 0.44 0.01 90 1008.4
20260903141543 54 131 0.0 1.0 0.00 0.44 0.01 90 1008.1
20260903140022 53 118 0.0 0.0 0.00 0.44 0.01 90 1008.1
20260903134507 53 118 0.0 1.0 0.00 0.44 0.01 90 1008.0
20260903133105 53 127 0.0 2.0 0.00 0.44 0.01 90 1007.8
20260903131535 53 116 0.0 3.0 0.00 0.44 0.01 90 1007.9
20260903130026 53 134 1.0 3.0 0.00 0.44 0.01 90 1007.8
20260903124502 53 115 1.0 4.0 0.00 0.44 0.01 90 1007.8
20260903123053 53 141 0.0 3.0 0.00 0.44 0.01 90 1007.9
20260903121529 53 125 0.0 3.0 0.00 0.44 0.01 89 1007.9
20260903120054 53 119 0.0 3.0 0.00 0.44 0.01 89 1008.2
20260903114523 54 116 0.0 1.0 0.00 0.44 0.01 88 1008.1
20260903113104 54 133 0.0 2.0 0.00 0.44 0.01 87 1008.0
20260903111547 55 115 0.0 1.0 0.00 0.44 0.01 87 1008.1
20260903110033 55 148 0.0 5.0 0.00 0.44 0.01 86 1007.9
20260903104516 55 220 1.0 4.0 0.00 0.44 0.01 86 1007.9
20260903103002 55 216 0.0 3.0 0.00 0.44 0.01 87 1007.9
20260903101530 55 192 1.0 7.0 0.00 0.44 0.01 88 1007.9
20260903100014 55 133 0.0 2.0 0.01 0.44 0.01 90 1007.7
20260903094606 55 136 0.0 5.0 0.01 0.44 0.01 90 1007.7
20260903093042 55 126 0.0 3.0 0.01 0.44 0.01 90 1007.8
20260903091518 55 124 0.0 5.0 0.01 0.44 0.01 89 1007.9
20260903090005 55 126 0.0 2.0 0.00 0.43 0.00 89 1007.9
20260903084553 55 211 0.0 1.0 0.00 0.43 0.00 89 1008.0
20260903083028 55 207 0.0 1.0 0.00 0.43 0.00 89 1008.0
20260903081504 56 208 0.0 2.0 0.00 0.43 0.00 89 1008.0
20260903080106 56 215 0.0 7.0 0.00 0.43 0.00 88 1008.1
20260903074526 56 203 0.0 5.0 0.00 0.43 0.00 87 1008.1
20260903073024 56 209 2.0 6.0 0.00 0.43 0.00 87 1007.9
20260903071554 56 194 2.0 5.0 0.00 0.43 0.00 88 1007.9
20260903070030 56 219 1.0 5.0 0.00 0.43 0.00 89 1007.8
20260903064515 56 193 2.0 9.0 0.00 0.43 0.43 88 1007.9
20260903063101 57 203 4.0 11.0 0.00 0.43 0.43 86 1007.9
20260903061551 57 242 1.0 4.0 0.00 0.43 0.43 86 1007.7
20260903060029 56 177 0.0 4.0 0.00 0.43 0.43 87 1007.7
20260903054511 57 213 1.0 4.0 0.00 0.43 0.43 87 1007.7
20260903053104 56 171 1.0 4.0 0.00 0.43 0.43 88 1007.9
20260903051537 56 212 0.0 4.0 0.00 0.43 0.43 89 1007.9
20260903050029 56 210 0.0 4.0 0.00 0.43 0.43 89 1007.7
20260903044505 57 205 1.0 4.0 0.00 0.43 0.43 88 1007.6
20260903043049 57 209 0.0 7.0 0.00 0.43 0.43 89 1007.5
20260903041540 57 134 0.0 4.0 0.00 0.43 0.43 91 1007.3
20260903040013 57 162 0.0 2.0 0.00 0.43 0.43 91 1007.3
20260903034606 57 217 0.0 1.0 0.00 0.43 0.43 91 1007.0
20260903033048 57 195 0.0 5.0 0.00 0.43 0.43 92 1006.9
20260903031539 57 138 0.0 5.0 0.00 0.43 0.43 92 1006.8
20260903030021 57 117 0.0 4.0 0.00 0.43 0.43 92 1006.6
20260903024603 58 152 0.0 6.0 0.00 0.43 0.43 92 1006.4
20260903023048 58 219 0.0 3.0 0.00 0.43 0.43 92 1006.4
20260903021528 58 210 0.0 3.0 0.00 0.43 0.43 93 1006.2
20260903020036 58 213 0.0 4.0 0.00 0.43 0.43 93 1006.1
20260903014524 58 222 0.0 4.0 0.00 0.43 0.43 93 1006.0